Time,TemperatureF,DewpointF,PressureIn,WindDirection,WindDirectionDegrees,WindSpeedMPH,WindSpeedGustMPH,Humidity,HourlyPrecipIn,Conditions,Clouds,dailyrainin,SoftwareType,DateUTC
2015-07-07 00:00:00,72.7,72.1,30.01,SE,136,0.0,4.0,98,0.00,,,0.10,Wunderground v.1.15,2015-07-07 04:00:00,
2015-07-07 00:10:00,72.7,72.4,30.01,SE,136,0.0,4.0,99,0.00,,,0.00,Wunderground v.1.15,2015-07-07 04:10:00,
2015-07-07 00:15:00,72.7,72.4,30.01,SE,136,0.0,4.0,99,0.00,,,0.00,Wunderground v.1.15,2015-07-07 04:15:00,
2015-07-07 00:20:00,72.6,72.3,30.01,SE,136,0.0,4.0,99,0.00,,,0.01,Wunderground v.1.15,2015-07-07 04:20:00,
2015-07-07 00:25:00,72.5,72.2,30.01,SE,136,0.0,4.0,99,0.00,,,0.01,Wunderground v.1.15,2015-07-07 04:25:00,
2015-07-07 00:30:00,72.5,72.2,30.01,SE,136,0.0,4.0,99,0.00,,,0.01,Wunderground v.1.15,2015-07-07 04:30:00,
2015-07-07 00:40:00,72.3,72.0,30.01,SE,136,0.0,4.0,99,0.00,,,0.01,Wunderground v.1.15,2015-07-07 04:40:00,
2015-07-07 00:45:00,72.3,72.0,30.01,SE,136,0.0,4.0,99,0.00,,,0.01,Wunderground v.1.15,2015-07-07 04:45:00,
2015-07-07 00:50:00,72.3,72.0,30.01,SE,136,0.0,4.0,99,0.00,,,0.01,Wunderground v.1.15,2015-07-07 04:50:00,
2015-07-07 01:00:00,72.1,72.1,30.01,SE,137,0.0,4.0,100,0.00,,,0.01,Wunderground v.1.15,2015-07-07 05:00:00,
2015-07-07 01:05:00,72.0,72.0,30.02,SE,138,0.0,4.0,100,0.00,,,0.01,Wunderground v.1.15,2015-07-07 05:05:00,
2015-07-07 01:10:00,71.9,71.9,30.02,SE,138,0.0,4.0,100,0.00,,,0.02,Wunderground v.1.15,2015-07-07 05:10:00,
2015-07-07 01:15:00,71.8,71.8,30.02,SE,139,0.0,4.0,100,0.00,,,0.02,Wunderground v.1.15,2015-07-07 05:15:00,
2015-07-07 01:20:00,71.8,71.8,30.02,SE,138,0.0,4.0,100,0.00,,,0.02,Wunderground v.1.15,2015-07-07 05:20:00,
2015-07-07 01:30:00,71.8,71.8,30.02,SE,139,0.0,4.0,100,0.00,,,0.02,Wunderground v.1.15,2015-07-07 05:30:00,
2015-07-07 01:35:00,71.7,71.7,30.02,SE,139,0.0,4.0,100,0.00,,,0.02,Wunderground v.1.15,2015-07-07 05:35:00,
2015-07-07 01:40:00,71.7,71.7,30.02,SE,145,0.0,4.0,100,0.00,,,0.02,Wunderground v.1.15,2015-07-07 05:40:00,
2015-07-07 01:45:00,71.8,71.8,30.02,SE,146,0.0,4.0,100,0.00,,,0.02,Wunderground v.1.15,2015-07-07 05:45:00,
2015-07-07 01:55:00,71.9,71.9,30.02,South,183,1.0,4.0,100,0.00,,,0.02,Wunderground v.1.15,2015-07-07 05:55:00,
2015-07-07 02:00:00,72.1,72.1,30.02,SW,219,1.0,1.0,100,0.00,,,0.02,Wunderground v.1.15,2015-07-07 06:00:00,
2015-07-07 02:05:00,72.1,72.1,30.02,SW,220,0.0,4.0,100,0.00,,,0.02,Wunderground v.1.15,2015-07-07 06:05:00,
2015-07-07 02:10:00,72.2,72.2,30.02,SW,223,0.0,4.0,100,0.00,,,0.02,Wunderground v.1.15,2015-07-07 06:10:00,
2015-07-07 02:20:00,72.2,72.2,30.02,SW,222,1.0,1.0,100,0.00,,,0.02,Wunderground v.1.15,2015-07-07 06:20:00,
2015-07-07 02:25:00,72.2,72.2,30.02,SW,236,1.0,4.0,100,0.00,,,0.03,Wunderground v.1.15,2015-07-07 06:25:00,
2015-07-07 02:30:00,72.3,72.3,30.02,SW,225,1.0,1.0,100,0.00,,,0.03,Wunderground v.1.15,2015-07-07 06:30:00,
2015-07-07 02:35:00,72.2,72.2,30.02,South,188,0.0,4.0,100,0.00,,,0.03,Wunderground v.1.15,2015-07-07 06:35:00,
2015-07-07 02:45:00,72.2,72.2,30.02,SW,219,1.0,4.0,100,0.00,,,0.03,Wunderground v.1.15,2015-07-07 06:45:00,
2015-07-07 02:50:00,72.2,72.2,30.02,SW,219,1.0,1.0,100,0.00,,,0.03,Wunderground v.1.15,2015-07-07 06:50:00,
2015-07-07 02:55:00,72.1,72.1,30.02,SW,221,1.0,4.0,100,0.00,,,0.03,Wunderground v.1.15,2015-07-07 06:55:00,
2015-07-07 03:00:00,72.1,72.1,30.02,SW,224,1.0,1.0,100,0.00,,,0.03,Wunderground v.1.15,2015-07-07 07:00:00,
2015-07-07 03:05:00,72.2,72.2,30.02,SW,224,1.0,4.0,100,0.00,,,0.03,Wunderground v.1.15,2015-07-07 07:05:00,
2015-07-07 03:15:00,71.8,71.8,30.02,SW,221,0.0,4.0,100,0.00,,,0.04,Wunderground v.1.15,2015-07-07 07:15:00,
2015-07-07 03:20:00,71.7,71.7,30.02,SW,219,0.0,4.0,100,0.00,,,0.04,Wunderground v.1.15,2015-07-07 07:20:00,
2015-07-07 03:25:00,71.6,71.6,30.02,SW,219,0.0,4.0,100,0.00,,,0.04,Wunderground v.1.15,2015-07-07 07:25:00,
2015-07-07 03:30:00,71.5,71.5,30.01,SW,219,0.0,4.0,100,0.00,,,0.04,Wunderground v.1.15,2015-07-07 07:30:00,
2015-07-07 03:40:00,71.6,71.6,30.02,SW,219,0.0,4.0,100,0.00,,,0.04,Wunderground v.1.15,2015-07-07 07:40:00,
2015-07-07 03:45:00,71.6,71.6,30.01,SW,219,0.0,4.0,100,0.00,,,0.04,Wunderground v.1.15,2015-07-07 07:45:00,
2015-07-07 03:50:00,71.5,71.5,30.01,SW,219,0.0,4.0,100,0.00,,,0.04,Wunderground v.1.15,2015-07-07 07:50:00,
2015-07-07 04:00:00,71.2,71.2,30.01,SW,221,0.0,4.0,100,0.00,,,0.04,Wunderground v.1.15,2015-07-07 08:00:00,
2015-07-07 04:05:00,71.2,71.2,30.01,WSW,238,1.0,4.0,100,0.00,,,0.04,Wunderground v.1.15,2015-07-07 08:05:00,
2015-07-07 04:10:00,71.1,71.1,30.01,WSW,242,2.0,4.0,100,0.00,,,0.04,Wunderground v.1.15,2015-07-07 08:10:00,
2015-07-07 04:15:00,71.2,71.2,30.01,WSW,244,2.0,4.0,100,0.00,,,0.04,Wunderground v.1.15,2015-07-07 08:15:00,
2015-07-07 04:20:00,71.0,71.0,30.01,SW,229,1.0,4.0,100,0.00,,,0.04,Wunderground v.1.15,2015-07-07 08:20:00,
2015-07-07 04:30:00,71.1,71.1,30.02,SW,231,0.0,4.0,100,0.00,,,0.04,Wunderground v.1.15,2015-07-07 08:30:00,
2015-07-07 04:35:00,71.1,71.1,30.01,SW,231,0.0,4.0,100,0.00,,,0.04,Wunderground v.1.15,2015-07-07 08:35:00,
2015-07-07 04:40:00,71.1,71.1,30.02,SW,232,0.0,4.0,100,0.00,,,0.05,Wunderground v.1.15,2015-07-07 08:40:00,
2015-07-07 04:45:00,71.0,71.0,30.02,SW,232,0.0,4.0,100,0.00,,,0.05,Wunderground v.1.15,2015-07-07 08:45:00,
2015-07-07 04:55:00,71.0,71.0,30.02,SW,232,0.0,4.0,100,0.00,,,0.05,Wunderground v.1.15,2015-07-07 08:55:00,
2015-07-07 05:00:00,71.0,71.0,30.02,SW,232,0.0,4.0,100,0.00,,,0.05,Wunderground v.1.15,2015-07-07 09:00:00,
2015-07-07 05:05:00,70.9,70.9,30.02,SW,232,0.0,4.0,100,0.00,,,0.05,Wunderground v.1.15,2015-07-07 09:05:00,
2015-07-07 05:10:00,70.9,70.9,30.02,SW,232,0.0,4.0,100,0.00,,,0.05,Wunderground v.1.15,2015-07-07 09:10:00,
2015-07-07 05:15:00,70.8,70.8,30.02,SW,232,0.0,4.0,100,0.00,,,0.05,Wunderground v.1.15,2015-07-07 09:15:00,
2015-07-07 05:25:00,70.6,70.6,30.02,SW,232,0.0,4.0,100,0.00,,,0.05,Wunderground v.1.15,2015-07-07 09:25:00,
2015-07-07 05:30:00,70.5,70.5,30.02,SW,233,0.0,4.0,100,0.00,,,0.05,Wunderground v.1.15,2015-07-07 09:30:00,
2015-07-07 05:35:00,70.5,70.5,30.02,SW,233,0.0,4.0,100,0.00,,,0.05,Wunderground v.1.15,2015-07-07 09:35:00,
2015-07-07 05:45:00,70.3,70.3,30.03,SW,233,0.0,4.0,100,0.00,,,0.05,Wunderground v.1.15,2015-07-07 09:45:00,
2015-07-07 05:50:00,70.3,70.3,30.03,SW,233,0.0,4.0,100,0.00,,,0.05,Wunderground v.1.15,2015-07-07 09:50:00,
2015-07-07 05:55:00,70.2,70.2,30.03,SW,233,0.0,4.0,100,0.00,,,0.05,Wunderground v.1.15,2015-07-07 09:55:00,
2015-07-07 06:00:00,70.2,70.2,30.03,SW,233,0.0,4.0,100,0.00,,,0.05,Wunderground v.1.15,2015-07-07 10:00:00,
2015-07-07 06:10:00,70.2,70.2,30.04,SW,233,0.0,4.0,100,0.00,,,0.05,Wunderground v.1.15,2015-07-07 10:10:00,
2015-07-07 06:15:00,70.1,70.1,30.04,SW,233,0.0,4.0,100,0.00,,,0.05,Wunderground v.1.15,2015-07-07 10:15:00,
2015-07-07 06:20:00,70.1,70.1,30.04,SW,233,0.0,4.0,100,0.00,,,0.05,Wunderground v.1.15,2015-07-07 10:20:00,
2015-07-07 06:25:00,70.0,70.0,30.04,SW,233,0.0,4.0,100,0.00,,,0.05,Wunderground v.1.15,2015-07-07 10:25:00,
2015-07-07 06:35:00,69.8,69.8,30.04,SW,233,0.0,4.0,100,0.00,,,0.05,Wunderground v.1.15,2015-07-07 10:35:00,
2015-07-07 06:40:00,69.6,69.6,30.04,SW,233,0.0,4.0,100,0.00,,,0.06,Wunderground v.1.15,2015-07-07 10:40:00,
2015-07-07 06:45:00,69.5,69.5,30.04,SW,232,0.0,4.0,100,0.00,,,0.06,Wunderground v.1.15,2015-07-07 10:45:00,
2015-07-07 06:55:00,69.2,69.2,30.05,SW,232,0.0,4.0,100,0.00,,,0.06,Wunderground v.1.15,2015-07-07 10:55:00,
2015-07-07 07:00:00,69.2,69.2,30.05,SW,232,0.0,4.0,100,0.00,,,0.06,Wunderground v.1.15,2015-07-07 11:00:00,
2015-07-07 07:05:00,69.4,69.4,30.05,SW,230,0.0,4.0,100,0.00,,,0.06,Wunderground v.1.15,2015-07-07 11:05:00,
2015-07-07 07:10:00,69.5,69.5,30.05,SW,230,0.0,4.0,100,0.00,,,0.06,Wunderground v.1.15,2015-07-07 11:10:00,
2015-07-07 07:15:00,69.7,69.7,30.06,SW,231,0.0,4.0,100,0.00,,,0.06,Wunderground v.1.15,2015-07-07 11:15:00,
2015-07-07 07:25:00,69.8,69.8,30.06,West,272,0.0,4.0,100,0.00,,,0.06,Wunderground v.1.15,2015-07-07 11:25:00,
2015-07-07 07:30:00,70.1,70.1,30.06,West,267,0.0,4.0,100,0.00,,,0.06,Wunderground v.1.15,2015-07-07 11:30:00,
2015-07-07 07:35:00,70.5,70.5,30.06,West,279,0.0,4.0,100,0.00,,,0.06,Wunderground v.1.15,2015-07-07 11:35:00,
2015-07-07 07:40:00,70.9,70.9,30.07,NNE,24,0.0,4.0,100,0.00,,,0.06,Wunderground v.1.15,2015-07-07 11:40:00,
2015-07-07 07:50:00,71.3,71.3,30.07,ENE,64,1.0,1.0,100,0.00,,,0.06,Wunderground v.1.15,2015-07-07 11:50:00,
2015-07-07 07:55:00,71.3,71.3,30.07,ENE,60,0.0,4.0,100,0.00,,,0.06,Wunderground v.1.15,2015-07-07 11:55:00,
2015-07-07 08:00:00,71.7,71.7,30.07,ENE,63,0.0,4.0,100,0.00,,,0.06,Wunderground v.1.15,2015-07-07 12:00:00,
2015-07-07 08:05:00,72.0,72.0,30.07,ENE,71,1.0,4.0,100,0.00,,,0.06,Wunderground v.1.15,2015-07-07 12:05:00,
2015-07-07 08:10:00,72.1,72.1,30.08,ENE,64,1.0,1.0,100,0.00,,,0.06,Wunderground v.1.15,2015-07-07 12:10:00,
2015-07-07 08:20:00,72.7,72.7,30.08,NE,41,0.0,4.0,100,0.00,,,0.06,Wunderground v.1.15,2015-07-07 12:20:00,
2015-07-07 08:25:00,73.1,73.1,30.08,ENE,59,0.0,4.0,100,0.00,,,0.06,Wunderground v.1.15,2015-07-07 12:25:00,
2015-07-07 08:30:00,73.5,73.5,30.07,ENE,59,0.0,4.0,100,0.00,,,0.06,Wunderground v.1.15,2015-07-07 12:30:00,
2015-07-07 08:40:00,73.8,73.5,30.08,ENE,59,0.0,4.0,99,0.00,,,0.06,Wunderground v.1.15,2015-07-07 12:40:00,
2015-07-07 08:45:00,74.1,73.8,30.08,ENE,59,0.0,4.0,99,0.00,,,0.06,Wunderground v.1.15,2015-07-07 12:45:00,
2015-07-07 08:50:00,74.4,73.5,30.08,ENE,59,0.0,4.0,97,0.00,,,0.06,Wunderground v.1.15,2015-07-07 12:50:00,
2015-07-07 08:55:00,74.7,73.8,30.08,ENE,59,0.0,4.0,97,0.00,,,0.06,Wunderground v.1.15,2015-07-07 12:55:00,
2015-07-07 09:00:00,75.1,74.2,30.08,ENE,59,0.0,4.0,97,0.00,,,0.06,Wunderground v.1.15,2015-07-07 13:00:00,
2015-07-07 09:10:00,76.2,75.0,30.08,ENE,59,0.0,4.0,96,0.00,,,0.06,Wunderground v.1.15,2015-07-07 13:10:00,
2015-07-07 09:15:00,76.6,74.7,30.08,ENE,59,0.0,4.0,94,0.00,,,0.06,Wunderground v.1.15,2015-07-07 13:15:00,
2015-07-07 09:20:00,76.8,74.9,30.08,ENE,59,0.0,4.0,94,0.00,,,0.06,Wunderground v.1.15,2015-07-07 13:20:00,
2015-07-07 09:25:00,77.0,74.8,30.08,ENE,74,0.0,4.0,93,0.00,,,0.06,Wunderground v.1.15,2015-07-07 13:25:00,
2015-07-07 09:35:00,77.5,75.0,30.08,SE,134,0.0,4.0,92,0.00,,,0.06,Wunderground v.1.15,2015-07-07 13:35:00,
2015-07-07 09:40:00,77.5,74.7,30.08,SE,132,1.0,4.0,91,0.00,,,0.06,Wunderground v.1.15,2015-07-07 13:40:00,
2015-07-07 09:45:00,77.8,75.0,30.08,SE,128,1.0,4.0,91,0.00,,,0.06,Wunderground v.1.15,2015-07-07 13:45:00,
2015-07-07 09:55:00,78.0,75.2,30.07,South,169,0.0,4.0,91,0.00,,,0.06,Wunderground v.1.15,2015-07-07 13:55:00,
2015-07-07 10:00:00,78.2,75.4,30.08,South,169,1.0,1.0,91,0.00,,,0.06,Wunderground v.1.15,2015-07-07 14:00:00,
2015-07-07 10:05:00,78.4,75.6,30.07,SSW,198,1.0,4.0,91,0.00,,,0.06,Wunderground v.1.15,2015-07-07 14:05:00,
2015-07-07 10:10:00,78.8,75.9,30.07,South,184,1.0,4.0,91,0.00,,,0.06,Wunderground v.1.15,2015-07-07 14:10:00,
2015-07-07 10:20:00,79.4,76.2,30.07,SSE,152,1.0,1.0,90,0.00,,,0.06,Wunderground v.1.15,2015-07-07 14:20:00,
2015-07-07 10:25:00,79.8,76.6,30.07,SSE,154,0.0,2.0,90,0.00,,,0.06,Wunderground v.1.15,2015-07-07 14:25:00,
2015-07-07 10:30:00,80.1,76.9,30.07,South,176,1.0,1.0,90,0.00,,,0.06,Wunderground v.1.15,2015-07-07 14:30:00,
2015-07-07 10:35:00,80.4,76.9,30.06,SSE,152,1.0,4.0,89,0.00,,,0.06,Wunderground v.1.15,2015-07-07 14:35:00,
2015-07-07 10:40:00,80.8,77.3,30.06,SSW,201,2.0,2.0,89,0.00,,,0.06,Wunderground v.1.15,2015-07-07 14:40:00,
2015-07-07 10:50:00,81.2,76.6,30.06,SW,226,2.0,4.0,86,0.00,,,0.06,Wunderground v.1.15,2015-07-07 14:50:00,
2015-07-07 10:55:00,81.4,76.8,30.06,WSW,243,2.0,4.0,86,0.00,,,0.06,Wunderground v.1.15,2015-07-07 14:55:00,
2015-07-07 11:00:00,81.6,76.6,30.06,WSW,237,2.0,5.0,85,0.00,,,0.06,Wunderground v.1.15,2015-07-07 15:00:00,
2015-07-07 11:05:00,81.8,77.2,30.06,WSW,250,3.0,5.0,86,0.00,,,0.06,Wunderground v.1.15,2015-07-07 15:05:00,
2015-07-07 11:10:00,82.2,77.2,30.06,South,188,3.0,4.0,85,0.00,,,0.06,Wunderground v.1.15,2015-07-07 15:10:00,
2015-07-07 11:20:00,83.0,77.7,30.06,South,177,3.0,6.0,84,0.00,,,0.06,Wunderground v.1.15,2015-07-07 15:20:00,
2015-07-07 11:25:00,83.3,77.2,30.06,WSW,238,3.0,6.0,82,0.00,,,0.06,Wunderground v.1.15,2015-07-07 15:25:00,
2015-07-07 11:30:00,83.8,77.3,30.06,West,265,4.0,4.0,81,0.00,,,0.06,Wunderground v.1.15,2015-07-07 15:30:00,
2015-07-07 11:40:00,84.1,77.6,30.06,West,268,3.0,4.0,81,0.00,,,0.06,Wunderground v.1.15,2015-07-07 15:40:00,
2015-07-07 11:45:00,83.8,77.3,30.06,WNW,300,2.0,4.0,81,0.00,,,0.06,Wunderground v.1.15,2015-07-07 15:45:00,
2015-07-07 12:05:00,85.3,77.7,30.06,West,275,3.0,4.0,78,0.00,,,0.06,Wunderground v.1.15,2015-07-07 16:05:00,
2015-07-07 12:10:00,85.1,76.7,30.05,West,274,3.0,4.0,76,0.00,,,0.06,Wunderground v.1.15,2015-07-07 16:10:00,
2015-07-07 12:15:00,85.2,77.2,30.05,WSW,256,3.0,7.0,77,0.00,,,0.06,Wunderground v.1.15,2015-07-07 16:15:00,
2015-07-07 12:20:00,85.3,77.3,30.05,WSW,244,3.0,3.0,77,0.00,,,0.06,Wunderground v.1.15,2015-07-07 16:20:00,
2015-07-07 12:25:00,85.6,75.9,30.05,SSW,208,4.0,4.0,73,0.00,,,0.06,Wunderground v.1.15,2015-07-07 16:25:00,
2015-07-07 12:35:00,85.8,74.9,30.05,South,184,4.0,9.0,70,0.00,,,0.06,Wunderground v.1.15,2015-07-07 16:35:00,
2015-07-07 12:40:00,85.9,75.4,30.05,South,171,5.0,5.0,71,0.00,,,0.06,Wunderground v.1.15,2015-07-07 16:40:00,
2015-07-07 12:45:00,86.2,76.1,30.05,SSW,211,4.0,7.0,72,0.00,,,0.06,Wunderground v.1.15,2015-07-07 16:45:00,
2015-07-07 12:55:00,86.8,75.4,30.05,ESE,117,5.0,5.0,69,0.00,,,0.06,Wunderground v.1.15,2015-07-07 16:55:00,